Terug naar catalogus

INTELSAT 605

ActiefCommunicatieGEO
NORAD 21653·PAYLOAD· XX

Gelanceerd Aug 14, 1991 vanaf Guiana Space Centre

Loading…

TLE

VersSource: Space-Track

Epoch: Sep 14, 2026, 15:13 UTC

1 21653U 91055A   26257.63410530 -.00000290  00000-0  00000-0 0  9993
2 21653  13.6615  16.8535 0003284 216.2702 145.9653  0.99330107127821

Volg INTELSAT 605 in realtime met AllMySat

Download on the App Store